Theta_e
357 355 356 344 321 318 312 314 321 318 321 328 330 327 326 326 325 320 350 354 357 359 364 366 369 371 371 371 372 371 368 365 365 366 366 364 365 363 363 364 363 362 361 361 361 361 361 361 362
355 349 339 331 316 308 311 317 316 323 326 330 331 330 329 327 339 341 347 356 358 361 361 364 369 371 371 371 371 371 369 367 366 365 364 365 363 363 363 363 363 362 361 359 359 360 361 360 361
358 341 329 321 315 312 313 319 321 324 329 326 329 333 328 331 342 343 354 358 359 359 360 365 372 371 372 372 372 371 369 367 367 365 363 363 362 362 363 362 363 361 361 360 359 359 360 360 361
348 344 332 318 313 318 320 321 322 325 325 326 325 322 328 345 344 348 356 360 358 359 363 369 372 372 372 372 372 371 369 367 367 367 364 362 363 363 363 360 360 361 361 360 360 360 360 361 361
347 329 314 315 314 321 325 326 328 323 322 325 326 318 326 343 350 351 351 358 357 359 361 365 371 371 370 370 371 370 369 368 367 366 365 364 363 364 363 361 361 362 361 362 360 359 360 360 362
320 325 314 311 314 319 322 327 328 327 328 325 323 320 332 341 346 348 356 359 359 357 361 364 370 371 371 370 370 370 369 369 368 367 366 365 365 366 365 363 361 361 360 362 361 359 361 360 361
318 321 315 315 315 317 320 324 325 326 326 324 329 324 332 340 347 349 356 359 359 359 359 362 364 366 369 371 370 370 370 369 369 370 369 367 365 363 364 364 362 360 360 361 360 361 361 360 360
317 322 317 318 315 315 323 322 328 328 326 334 334 324 326 340 349 354 355 359 357 358 358 358 359 361 361 363 371 371 371 371 369 368 366 365 363 361 363 365 363 361 360 359 360 361 362 363 363
319 314 312 315 315 317 324 322 329 329 328 330 334 333 340 348 349 352 350 352 355 357 356 357 358 358 358 359 364 370 370 368 367 366 366 363 355 356 358 360 363 361 361 360 359 361 362 364 361
312 309 315 321 322 321 323 324 323 322 320 323 329 340 347 348 347 347 346 347 349 352 354 356 358 358 359 361 358 359 358 357 356 355 356 356 353 353 357 360 363 361 360 360 362 363 362 361 354
312 315 319 320 323 325 321 324 326 322 319 322 322 339 343 345 346 344 345 346 348 352 354 354 355 356 353 357 355 355 353 351 353 349 353 350 352 351 349 353 356 354 359 353 359 359 356 354 352
307 316 323 324 326 325 319 320 323 326 325 331 326 339 342 341 343 344 343 345 348 349 352 354 354 354 352 352 352 352 352 352 349 351 350 346 343 344 346 351 351 352 353 352 353 354 353 351 352
310 315 319 325 321 321 323 320 324 326 329 331 329 338 341 342 343 344 346 347 347 347 352 353 355 352 353 348 345 336 343 350 350 349 349 345 341 339 343 347 350 351 352 351 352 352 351 350 351
315 315 315 320 320 321 319 320 318 325 330 329 332 336 340 340 340 341 342 343 347 347 350 354 353 354 351 346 344 335 340 348 347 344 348 344 341 344 347 347 346 349 350 350 351 349 349 348 350
316 311 313 316 318 319 321 315 314 322 330 328 336 337 338 339 339 340 341 341 342 345 350 350 351 353 351 350 346 342 348 348 343 337 336 347 345 347 346 346 345 345 350 351 350 351 350 348 350
310 310 304 316 319 321 317 306 320 324 325 325 335 338 340 337 338 342 344 343 345 346 348 350 354 353 353 352 353 351 348 345 346 339 340 349 347 346 347 345 344 346 350 351 349 348 347 346 348
307 301 309 312 319 317 316 310 322 325 326 328 331 327 335 335 337 342 346 347 347 347 350 349 350 351 353 354 351 349 347 347 347 346 348 349 349 348 347 345 345 345 347 348 347 344 345 343 346
303 307 310 310 316 315 313 312 318 323 322 326 325 327 323 326 336 342 345 347 351 352 352 351 351 352 352 352 349 348 346 346 344 344 346 348 349 350 346 346 345 345 344 345 347 342 343 343 344
309 308 310 312 318 314 313 311 320 320 322 324 324 324 322 323 330 342 344 346 349 351 350 350 349 350 349 347 344 342 340 339 340 343 345 344 345 346 344 343 345 343 342 342 344 344 341 341 345
309 305 305 312 317 312 311 309 315 319 318 316 322 322 323 326 327 338 328 343 347 349 350 349 348 347 347 346 343 341 340 341 342 341 345 346 343 343 345 342 343 342 341 343 344 342 338 341 342
305 303 304 306 311 311 311 306 311 318 317 319 325 325 328 328 331 334 328 331 342 349 350 348 347 346 345 344 343 341 341 339 337 340 339 343 344 342 342 343 342 341 341 339 342 344 339 337 342
298 308 308 308 304 297 306 293 308 311 311 317 318 318 321 328 339 334 330 330 342 348 351 350 348 347 346 345 340 336 334 331 333 336 337 340 342 342 343 342 342 342 342 340 342 345 341 339 336
302 308 306 309 302 299 301 295 305 311 310 313 316 321 322 326 341 339 338 343 349 352 351 351 348 346 345 344 340 336 333 334 335 337 336 336 339 341 343 342 342 341 341 342 341 341 340 339 338
310 305 304 304 299 291 297 297 299 306 311 313 317 320 320 331 342 343 345 345 347 350 350 350 346 343 341 340 338 336 334 336 334 334 335 335 338 339 343 343 342 342 341 341 342 342 343 341 338
305 300 291 291 291 291 304 301 302 311 317 318 316 321 333 341 340 339 339 342 341 343 348 347 343 339 340 338 337 336 333 333 333 334 336 335 335 336 339 339 340 341 343 341 341 341 340 342 340
302 299 292 287 289 294 304 298 305 316 318 321 330 337 338 337 334 331 336 339 338 338 343 343 340 337 339 339 337 336 334 333 335 336 336 335 335 336 339 339 340 342 343 342 343 342 342 340 338
301 298 302 294 295 292 297 304 315 317 317 321 332 336 333 331 333 332 330 336 337 336 339 340 338 337 338 337 337 336 334 335 337 337 337 337 336 338 340 341 340 341 341 340 339 338 339 340 338
303 305 295 295 288 287 294 303 303 311 312 318 323 332 330 330 329 329 333 335 336 337 337 340 338 336 337 338 338 335 334 335 336 337 337 337 339 339 339 339 339 340 339 340 339 338 339 339 337
302 298 298 297 295 289 290 299 312 313 315 316 317 324 330 329 327 331 333 335 336 337 337 338 338 337 337 337 337 333 334 336 334 334 337 338 338 338 338 340 339 337 337 338 338 337 338 336 335
306 302 300 293 293 297 297 302 316 317 319 320 321 322 328 333 333 331 332 334 334 334 334 336 336 338 339 338 337 333 332 336 335 336 337 338 338 338 337 339 338 337 337 338 337 336 336 334 334
Wind_Speed
7 10 5 2 4 3 2 14 15 12 15 24 23 17 18 9 6 8 12 20 21 17 14 15 16 15 15 15 16 15 13 14 13 13 14 14 12 12 12 12 10 10 10 9 9 9 8 8 8
6 11 4 2 4 5 3 14 12 16 17 22 21 17 15 16 12 8 10 19 20 17 13 13 15 14 14 14 15 16 15 15 14 13 13 12 11 12 11 11 11 8 9 8 8 8 8 7 8
8 12 8 4 3 6 7 14 9 24 15 15 12 12 10 6 8 4 18 20 18 16 13 14 16 14 13 14 15 16 15 14 14 14 14 13 12 11 11 10 10 8 7 7 8 8 8 7 7
2 6 5 1 2 9 11 18 10 24 21 13 10 6 3 13 5 6 21 23 18 15 15 17 17 15 14 14 15 16 16 15 14 15 15 14 13 12 10 9 8 7 8 7 7 8 9 8 7
3 3 4 2 4 10 19 20 29 30 21 11 14 1 4 3 10 6 11 18 19 14 15 16 18 15 13 13 14 15 16 15 14 14 14 14 12 11 10 9 7 7 7 8 7 8 9 8 8
2 3 5 4 1 11 8 28 17 23 21 9 6 4 5 10 9 4 17 18 16 16 10 13 18 16 14 13 13 14 15 16 15 14 14 14 12 11 8 8 8 6 7 7 8 8 9 10 8
5 6 2 6 12 17 9 7 24 23 18 10 13 8 2 4 9 6 15 18 17 14 12 9 10 13 15 14 13 13 14 15 15 15 13 13 12 11 11 8 6 6 6 6 7 9 9 10 9
2 6 5 13 6 8 17 5 18 21 13 15 10 5 4 5 11 8 13 14 14 12 12 10 7 7 6 6 13 13 14 15 15 14 13 13 11 10 10 9 7 7 7 7 7 9 9 9 10
3 5 5 6 5 9 14 5 8 7 18 5 5 9 7 11 10 9 8 9 11 9 12 10 10 8 8 7 8 12 14 14 14 13 12 8 3 5 7 7 10 9 8 8 9 9 9 9 10
5 4 12 9 9 12 16 18 14 5 4 6 8 7 16 16 11 8 7 8 7 9 7 9 9 8 8 7 5 5 5 4 4 5 5 4 4 4 5 8 8 10 9 8 8 9 11 9 3
7 7 8 10 17 19 16 12 6 11 3 9 16 21 19 18 14 9 7 8 8 10 6 8 8 8 7 6 4 3 2 2 3 3 3 1 1 3 2 2 3 3 8 3 4 4 4 4 3
6 14 12 12 15 10 8 16 9 8 8 3 17 18 18 17 16 14 11 10 10 10 9 8 8 8 7 5 5 5 5 4 3 5 7 4 1 1 2 2 4 3 3 4 4 3 4 4 6
10 9 11 13 9 5 7 6 9 6 6 13 16 13 17 17 16 12 15 13 11 9 10 9 8 7 6 7 5 4 2 4 5 4 3 4 3 3 3 3 3 4 3 3 5 4 4 5 6
9 12 8 6 9 8 4 0 4 6 13 14 15 13 14 15 15 11 12 13 12 9 10 10 8 7 8 6 5 5 4 3 4 5 7 8 5 5 4 4 4 3 4 4 4 4 4 4 4
11 10 9 14 16 10 8 2 4 4 15 18 20 20 14 15 16 13 10 13 12 10 12 11 9 7 8 9 6 4 4 5 5 5 3 8 7 6 6 4 4 5 4 5 4 4 3 3 3
10 8 6 8 16 7 14 7 2 5 11 5 11 19 18 13 16 14 10 10 10 8 8 7 8 8 7 6 6 5 5 5 5 5 5 7 10 8 5 5 5 5 4 4 3 3 3 4 4
6 2 14 21 30 16 4 7 3 8 9 12 2 32 5 13 12 15 16 15 13 11 10 8 7 8 8 7 4 4 3 3 5 6 6 11 10 9 7 6 5 6 4 4 4 3 3 3 3
8 9 6 15 13 8 15 18 9 8 14 5 22 23 25 13 12 16 19 15 13 12 11 8 6 7 7 5 4 2 2 2 3 4 4 9 9 11 7 5 6 5 4 4 4 4 3 3 4
12 10 12 15 21 2 10 15 10 14 15 22 26 29 17 33 15 16 16 17 13 11 11 10 9 7 5 2 3 1 2 3 2 3 2 2 5 7 6 5 5 5 6 6 6 4 5 3 4
11 8 5 10 18 6 13 7 9 6 9 9 24 23 19 26 11 9 32 11 13 14 10 8 8 7 5 3 2 2 1 2 3 3 4 3 4 6 6 6 5 6 4 6 6 5 4 4 4
9 6 7 7 7 6 5 6 3 2 6 7 17 23 17 19 5 18 18 17 21 11 11 9 8 8 6 5 2 1 1 2 2 3 3 4 5 6 6 7 6 5 5 5 5 5 6 4 4
8 9 11 8 2 3 2 6 6 3 3 1 1 8 4 12 26 22 13 15 22 10 9 8 8 8 6 6 3 2 2 2 3 3 3 5 5 6 6 7 7 6 5 6 6 6 5 5 4
10 9 8 5 6 7 9 3 3 6 3 6 6 5 5 2 11 20 18 20 13 11 7 8 8 7 6 6 5 3 2 2 4 4 6 6 5 6 6 7 7 6 4 5 6 6 5 4 4
7 6 7 2 4 5 7 3 5 6 7 4 5 9 7 4 14 15 10 9 11 12 11 10 9 7 7 9 7 4 4 5 4 4 4 4 3 4 5 6 7 6 5 6 7 6 8 7 4
6 1 5 6 4 9 3 3 2 4 3 5 12 13 13 16 15 12 9 7 10 11 11 8 7 8 8 8 5 3 3 4 5 5 4 3 2 2 5 6 5 4 5 6 6 6 7 8 5
7 10 7 5 4 6 6 4 6 19 30 9 13 19 16 13 11 10 9 10 10 10 13 10 9 8 8 6 4 4 4 3 4 4 3 1 1 2 3 5 5 6 6 5 6 4 4 6 6
9 3 11 4 4 4 5 2 8 10 14 3 19 19 16 13 9 8 8 11 10 9 10 11 8 7 7 5 5 5 4 6 6 7 4 3 3 0 3 5 5 5 5 7 7 4 5 5 6
9 6 2 3 2 6 4 3 6 9 14 15 8 16 15 12 11 7 7 7 8 9 9 9 8 8 7 6 6 4 5 5 5 4 7 6 5 6 3 3 5 5 5 6 6 4 5 7 3
2 3 3 3 5 6 1 6 9 15 9 9 3 8 19 14 9 7 11 9 9 7 7 8 8 7 5 5 6 6 4 3 3 4 5 5 5 6 7 6 5 3 3 5 6 4 6 6 5
7 9 9 7 9 2 6 2 8 2 2 2 4 3 13 15 11 9 10 11 9 7 6 7 6 7 6 4 7 7 4 4 2 3 5 5 6 7 5 6 8 9 9 8 10 9 8 7 7
Wind_Direction
290 253 210 340 32 40 309 72 80 80 77 70 72 72 70 55 59 124 129 119 127 132 136 135 136 139 136 137 141 140 135 128 126 125 121 120 117 119 119 113 108 109 113 119 121 116 106 108 117
311 339 84 43 60 21 357 87 73 71 82 84 64 80 72 75 69 92 108 126 126 130 135 134 132 133 134 140 145 145 143 140 138 133 128 129 134 131 134 132 129 128 127 129 131 128 119 123 133
319 49 67 32 42 347 310 103 109 70 52 58 68 35 14 101 95 91 131 118 127 134 134 134 129 127 125 134 141 145 148 149 145 142 143 144 143 145 145 145 141 142 131 147 150 147 137 140 149
235 34 27 355 310 283 262 298 140 86 29 35 148 59 328 6 58 113 121 127 147 133 135 130 128 124 126 137 143 147 152 154 154 153 155 155 154 156 153 155 157 143 143 156 165 164 159 153 156
197 73 84 43 342 273 282 268 89 90 80 13 343 267 293 52 98 112 121 139 121 140 144 136 132 131 130 132 142 149 153 157 160 160 160 161 163 161 161 167 164 161 147 151 156 167 165 163 170
28 80 15 354 249 248 295 103 112 112 142 173 81 117 287 318 107 137 112 111 121 127 135 138 137 137 133 132 141 153 158 161 163 166 165 167 168 165 172 167 160 174 160 151 159 170 170 165 186
127 78 7 300 275 303 237 55 120 138 133 129 161 161 254 340 134 155 120 120 123 129 130 133 136 141 143 146 152 158 163 166 168 168 169 170 172 175 167 175 166 175 175 151 174 175 181 175 179
172 102 162 227 241 278 286 50 115 108 133 147 152 121 244 233 129 94 132 121 125 130 134 133 131 128 131 150 159 165 169 170 170 172 175 177 180 182 180 169 179 182 189 169 187 184 189 186 179
249 104 205 262 200 239 271 93 21 43 146 179 138 168 165 138 106 96 101 100 125 143 139 146 146 146 150 160 175 174 175 173 170 174 183 181 163 194 197 195 193 191 191 193 188 194 190 194 184
142 190 201 223 211 264 272 114 87 250 131 100 146 180 150 128 127 128 143 133 129 128 139 153 150 155 156 164 169 152 166 152 146 161 164 160 198 199 204 208 212 188 193 199 196 185 191 197 178
208 203 222 229 241 231 264 100 92 163 298 180 170 146 151 146 138 151 173 153 147 147 146 154 160 159 154 135 145 139 128 138 134 132 112 172 34 146 195 221 201 175 198 176 195 177 186 194 196
244 249 221 274 221 237 240 138 175 182 187 165 164 150 151 146 153 171 166 165 151 156 162 158 160 163 171 149 148 167 159 151 150 162 165 145 138 257 267 201 198 190 214 172 182 177 189 204 216
258 256 275 232 274 303 331 100 119 127 102 114 142 154 160 160 167 167 168 168 164 161 156 157 160 164 156 138 162 101 187 184 162 151 172 150 171 224 216 228 211 199 186 200 171 185 188 215 202
290 293 294 276 285 325 54 12 73 129 119 131 156 171 187 159 159 153 165 158 168 152 152 153 165 172 150 147 163 165 186 198 162 197 169 178 174 208 213 193 215 219 196 208 171 181 195 201 196
294 276 302 13 354 322 331 140 145 167 156 168 187 177 196 162 159 160 157 147 147 143 144 150 149 152 145 149 161 183 190 164 177 220 205 178 188 199 190 182 215 220 217 192 172 176 176 180 202
313 311 26 321 349 304 28 269 259 72 85 356 263 181 163 170 158 149 142 138 135 135 139 147 156 160 164 158 152 167 168 175 192 214 217 196 192 194 187 176 211 208 203 180 166 167 178 196 187
270 314 66 359 305 302 99 294 205 129 211 85 14 351 232 156 157 157 154 151 152 153 153 172 173 168 158 156 147 158 218 192 185 199 211 203 189 197 183 178 205 199 192 185 160 190 173 183 183
270 115 127 211 276 252 292 279 208 197 162 116 108 312 347 326 188 165 156 147 144 150 150 158 147 152 156 146 147 142 174 270 241 217 225 186 190 190 186 193 190 184 177 199 167 167 203 171 195
258 274 175 228 243 100 254 265 212 174 179 126 136 127 250 275 268 168 158 149 140 149 151 153 143 158 145 117 121 52 250 268 275 318 45 340 210 189 185 194 195 179 181 192 187 165 173 214 183
262 287 259 202 221 158 263 240 183 179 211 158 121 158 213 257 247 65 34 352 151 159 164 146 155 153 149 126 134 149 211 271 252 270 283 223 211 216 193 190 194 192 174 184 189 160 173 185 183
280 261 282 265 298 224 220 269 208 318 11 78 152 165 192 256 154 106 127 189 270 158 162 161 160 156 143 138 119 138 4 334 299 287 278 261 216 223 196 202 190 200 174 186 183 173 170 165 202
270 269 274 258 266 255 31 271 15 30 275 71 64 31 309 60 142 134 165 177 235 159 169 150 140 130 129 126 109 188 192 240 235 243 248 260 244 219 209 199 197 195 187 181 197 183 177 141 173
240 270 291 2 18 31 309 15 299 131 260 209 142 155 201 100 136 143 168 189 169 150 106 99 104 104 111 108 96 57 347 281 266 265 270 245 229 217 202 191 189 188 191 184 198 193 172 163 155
261 268 321 19 59 339 258 225 227 198 191 233 131 177 207 213 109 98 102 110 103 108 108 118 127 125 101 89 86 60 0 310 313 310 299 255 227 194 191 185 182 178 184 198 196 195 187 168 155
190 36 342 342 357 232 279 4 266 300 1 177 156 185 162 115 112 118 125 124 112 123 120 121 109 100 101 106 107 92 24 347 340 321 303 281 231 201 187 181 178 176 183 198 184 184 198 163 161
216 158 162 238 235 254 358 280 53 67 305 224 144 129 122 127 125 140 158 117 118 112 116 114 105 96 90 116 114 76 37 11 332 310 313 33 143 170 184 185 184 181 193 190 191 175 180 166 154
260 216 203 212 282 343 233 220 29 10 338 50 133 132 136 136 135 135 107 119 117 103 114 114 113 113 116 116 110 83 48 32 8 344 360 60 56 119 173 182 186 188 204 200 202 177 162 156 153
167 218 348 344 246 271 276 34 194 21 293 293 94 141 137 129 123 137 99 104 99 102 116 114 116 118 125 131 122 108 84 53 28 19 9 33 33 40 31 184 196 191 211 197 143 133 134 142 128
163 227 259 157 160 188 120 266 189 184 241 293 40 354 148 144 148 140 132 121 116 120 129 131 127 133 132 132 136 120 111 85 55 39 27 31 43 46 36 37 57 79 158 143 129 140 118 121 138
179 196 186 142 279 209 145 351 80 157 261 316 7 62 310 139 141 137 132 124 130 142 131 126 136 133 148 161 143 139 138 120 105 37 52 45 39 31 54 55 56 59 54 83 89 87 84 90 89